Location: Unspecified
(52.1384°N, 8.6525°W)
Time: 11:48:00
(UTC+00:00)

XW-2F - Pass Details

Date: 23 January 2021
Orbit: 500 x 519 km, 97.5° (Epoch: 24 February)

Event Time Altitude Azimuth Distance (km) Brightness Sun altitude
Rises 07:21:40 0° 9° (N) 2,661 ? -10.0°
Reaches altitude 10° 07:23:49 10° 4° (N) 1,769 ? -9.7°
Maximum altitude 07:27:30 49° 290° (WNW) 682 ? -9.1°
Drops below altitude 10° 07:31:10 10° 215° (SW) 1,755 ? -8.6°
Sets 07:33:18 0° 209° (SSW) 2,637 ? -8.3°
